Showing default

QIANFAN-195, 69413

Orbit data source: Space-Track

QIANFAN-195, 69413 is a Chinese payload satellite in LEO that was launched on Fri, 05 Jun 2026 UTC via a CHANG ZHENG 8 launch vehicle from the Wenchang Satellite Launch Center (WSC). Payload-class satellites include a variety of spacecraft equipped with specific instruments for various scientific and technological missions. These include communications satellites like Starlink; space stations such as the ISS; scientific satellites like the Hubble; Earth observation satellites from companies like Planet Labs, Umbra, and HawkEye 360; GPS; miniature CubeSats for education and research; and military/defense satellites.

Loading next visibility...
Identifier
69413, 2026-125N
Orbit
LEO
Country
Flag of CNCN / PRC
Related business
Manufacturer
SECM?
Mission
Operational spacecraft
Bus & Motor
QIANFAN, Unknown motor
Mass
267 kg wet, ~267 kg dry
Launch date (UTC)
2026-06-05 (2 weeks ago)
Launch vehicle
CHANG ZHENG 8
Launch site
Wenchang Satellite Launch Center (WSC)
Object type
Payload
Rocket body
Debris
Shape & HBR
Unknown
Radar Cross Section
Large (>1 m²)

Expand to show TLE details & history
Last TLE update: 1 day ago

TLE from 1 day ago
0 QIANFAN-195
1 69413U 26125N   26170.77760962 -.02060440  00000-0 -10715+1 0  9991
2 69413  88.9935 280.1519 0014843 185.9073 174.1944 14.18838348  2073
Epoch: 2026-06-19T18:39Z
TLE epoch observation values (Epoch: 2026-06-19T18:39:45.471Z)
Latitude
0.00002°
Longitude
92.21072°
Altitude
842.981 km
Speed
7.426 km/s
True Right ascension
18h 40m 36s
True Declination
0° 00' 00"
Sunlit
Object was in full shadow at epoch
Visualization orbit readout
Latitude
Unknown
Longitude
Unknown
Altitude
Unknown
Speed
Unknown
Apparent Right ascension
Unknown
Apparent Declination
Unknown
Sunlit
N/A
Visualization observer readout
Local Sidereal Time
08:33:00
Azimuth
Unknown
Elevation
Unknown
Doppler factor
Unknown
Orbital elements
Apogee altitude
836.93 km
Perigee altitude
815.544 km
Semi-major axis
7,204.374 km
Eccentricity
0.00148
Inclination
88.9935°
RAAN
280.1519°
Arg. of periapsis
185.9073°
True anomaly
174.21157°
Mean anomaly
174.1944°
Eccentric anomaly
174.20299°
Mean motion
3.54935 °/min
Orbital period
101.43 mins
BSTAR
-1.0715
Loading maneuver chart data...
Computing Atmospheric mass density...
Loading historical data...
Loading historical data...
Loading historical data...
Loading historical data...
Loading historical data...
Loading historical data...
Loading historical data...

Documentation

Showing up to 5 results
|